Location: Ernsee
(50.8780°N, 12.0389°E)
Time: 20:43:18
(UTC+00:00)

BREEZE M DEB (TANK) - Pass Details

Date: 20 January 2020
Orbit: 295 x 14515 km, 49.6° (Epoch: 16 February)

Event Time Altitude Azimuth Distance (km) Brightness Sun altitude
Exits shadow 06:00:03 11° 284° (WNW) 6,344 7.0 -9.9°
Maximum altitude 06:13:26 61° 209° (SSW) 1,175 3.9 -7.9°
Drops below altitude 10° 06:17:16 10° 128° (SE) 1,920 6.6 -7.4°
Sets 06:18:38 0° 124° (ESE) 2,520 7.8 -7.2°
